Tracking 30743 objects as of 20-Jun-2025
HD Live streaming from Space Station
objects crossing your sky now

STARLINK-6044

Track STARLINK-6044 now!
10-day predictions
STARLINK-6044 is classified as:


NORAD ID: 56479
Int'l Code: 2023-064AH
Perigee: 577.7 km
Apogee: 580.6 km
Inclination: 70.0 °
Period: 96.1 minutes
Semi major axis: 6950 km
RCS: Unknown
Launch date: May 10, 2023
Source: United States (US)
Launch site: AIR FORCE WESTERN TEST RANGE (AFWTR)
Your satellite tracking list
Your tracking list is empty




NASA's NSSDC Master Catalog

Two Line Element Set (TLE):
1 56479U 23064AH  25171.12624614 -.00001276  00000-0 -99156-4 0  9990
2 56479  70.0004  66.3194 0002098 276.6597  83.4323 14.98333485116777
Source of the keplerian elements: AFSPC